• Join FlightAware (Why Join?)
  • Login
  • US Flag GB Flag 
01:44 EDT


 

Airport Tracker/Info


-or-


 

Live Flight TrackerFlight Track Log ✈ EJA922 ✈ 13-Aug-2013 ✈ KCMH - KECP

Flight Track Log - Related Links

Times and Time Zones

All times are in EDT time to prevent confusion due to time zone crossing. See the EJA922 flight status page for this flight to view local times or setup timezone preferences in your user account.

Time Position Orientation Groundspeed Altitude Reporting Facility
EDT Latitude Longitude Course Direction KTS MPH feet Rate Location/Type
10:43 40.0022 -82.9100 239° Southwest 164 189 1,500  Level Indianapolis Center
10:45 39.9547 -83.0117 239° Southwest 278 320 8,700 3,420 Climbing Indianapolis Center
10:46 39.8772 -82.9333 142° Southeast 310 357 11,400 2,700 Climbing Indianapolis Center
10:47 39.8117 -82.8592 139° Southeast 311 358 14,700 2,880 Climbing Indianapolis Center
10:48 39.7428 -82.7817 139° Southeast 322 371 17,400 2,460 Climbing Indianapolis Center
10:49 39.6628 -82.7150 147° Southeast 340 391 19,900 2,040 Climbing Indianapolis Center
10:50 39.5758 -82.6417 147° Southeast 369 425 21,700 1,740 Climbing Indianapolis Center
10:51 39.4847 -82.5636 147° Southeast 388 447 23,500 1,740 Climbing Indianapolis Center
10:52 39.3808 -82.5308 166° South 390 449 25,300 1,860 Climbing Indianapolis Center
10:53 39.2511 -82.5508 187° South 393 452 27,400 1,860 Climbing Indianapolis Center
10:54 39.1392 -82.5653 186° South 404 465 29,200 1,740 Climbing Indianapolis Center
10:55 39.0267 -82.5814 186° South 407 468 31,000 1,740 Climbing Indianapolis Center
10:56 38.9094 -82.5972 186° South 420 483 32,800 1,500 Climbing Indianapolis Center
10:57 38.7906 -82.6136 186° South 429 494 34,200 1,260 Climbing Indianapolis Center
10:58 38.6417 -82.6350 186° South 446 513 35,500 1,140 Climbing Indianapolis Center
10:59 38.5061 -82.6519 186° South 466 536 36,600 960 Climbing Indianapolis Center
11:00 38.3719 -82.6706 186° South 480 552 37,500 900 Climbing Indianapolis Center
11:01 38.2364 -82.6875 186° South 487 560 38,500 960 Climbing Indianapolis Center
11:02 38.1003 -82.7072 187° South 489 563 39,600 1,020 Climbing Indianapolis Center
11:03 37.9642 -82.7244 186° South 491 565 40,700 900 Climbing Indianapolis Center
11:04 37.8272 -82.7425 186° South 492 566 41,500 720 Climbing Indianapolis Center
11:05 37.6681 -82.7669 187° South 494 568 42,300 720 Climbing Indianapolis Center
11:06 37.5483 -82.8375 205° Southwest 475 547 43,000 300 Climbing Indianapolis Center
11:07 37.4297 -82.9161 208° Southwest 480 552 43,000  Level Indianapolis Center
11:08 37.3114 -82.9947 208° Southwest 483 556 43,000  Level Indianapolis Center
11:09 37.1906 -83.0728 207° Southwest 490 564 43,000  Level Indianapolis Center
11:10 37.0519 -83.1633 208° Southwest 488 562 43,000  Level Indianapolis Center
11:12 36.9319 -83.2406 207° Southwest 489 563 43,000  Level Indianapolis Center
11:13 36.8108 -83.3181 207° Southwest 490 564 43,000  Level Indianapolis Center
11:14 36.6906 -83.3953 207° Southwest 487 560 43,000  Level Indianapolis Center
11:15 36.5683 -83.4728 207° Southwest 491 565 43,000  Level Indianapolis Center
11:16 36.4475 -83.5511 208° Southwest 490 564 43,000  Level Indianapolis Center
11:17 36.3011 -83.6444 207° Southwest 490 564 43,000  Level Indianapolis Center
11:18 36.1786 -83.7214 207° Southwest 492 566 43,000  Level Indianapolis Center
11:19 36.0572 -83.7989 207° Southwest 491 565 43,000  Level Indianapolis Center
11:20 35.9081 -83.8875 206° Southwest 488 562 43,000  Level Atlanta Center
11:21 35.7703 -83.9261 193° South 498 573 43,000  Level Atlanta Center
11:22 35.6306 -83.9622 192° South 503 579 43,000  Level Atlanta Center
11:23 35.4764 -83.9981 191° South 515 593 43,000  Level Atlanta Center
11:24 35.3364 -84.0336 192° South 515 593 43,000  Level Atlanta Center
11:25 35.1947 -84.0667 191° South 515 593 43,000  Level Atlanta Center
11:26 35.0589 -84.0997 191° South 515 593 43,000  Level Atlanta Center
11:27 34.9169 -84.1350 192° South 515 593 43,000  Level Atlanta Center
11:28 34.7792 -84.1678 191° South 515 593 43,000  Level Atlanta Center
11:29 34.6436 -84.1978 190° South 515 593 43,000  Level Atlanta Center
11:30 34.5017 -84.2328 191° South 503 579 43,000  Level Atlanta Center
11:31 34.3764 -84.2603 190° South 510 587 43,000  Level Atlanta Center
11:32 34.2386 -84.2925 191° South 510 587 43,000  Level Atlanta Center
11:33 34.0797 -84.3322 192° South 516 594 43,000  Level Atlanta Center
11:34 33.9336 -84.3667 191° South 521 600 43,000  Level Atlanta Center
11:35 33.7958 -84.3986 191° South 528 608 43,000  Level Atlanta Center
11:36 33.6497 -84.4306 190° South 523 602 43,000 -300 Level Atlanta Center
11:37 33.5139 -84.4847 198° South 523 602 42,500  Descending Atlanta Center
11:38 33.3842 -84.5414 200° South 518 596 43,000 -1,860 Climbing Atlanta Center
11:39 33.2481 -84.6028 201° Southwest 513 590 38,800  Descending Atlanta Center
11:40 33.1269 -84.6514 199° South 513 590 43,000 -1,680 Climbing Atlanta Center
11:41 32.9908 -84.7100 200° South 513 590 35,500 -4,500 Descending Atlanta Center
11:42 32.8569 -84.7708 201° Southwest 513 590 34,100 -1,560 Descending Atlanta Center
11:43 32.7189 -84.8239 198° South 513 590 32,400 -1,560 Descending Atlanta Center
11:44 32.5703 -84.8867 200° South 519 597 31,000 -1,620 Descending Atlanta Center
11:45 32.4322 -84.9394 198° South 524 603 29,200 -1,800 Descending Atlanta Center
11:47 32.1586 -85.0569 200° South 528 608 25,600 -1,740 Descending Jacksonville Center
11:48 32.0303 -85.1103 199° South 515 593 24,000 -840 Descending Jacksonville Center
11:49 31.9042 -85.1611 199° South 498 573 24,000  Level Jacksonville Center
11:50 31.7842 -85.2119 200° South 478 550 24,000 -480 Level Jacksonville Center
11:51 31.6642 -85.2628 200° South 465 535 23,100 -1,620 Descending Jacksonville Center
11:52 31.5231 -85.3225 200° South 483 556 20,700 -2,100 Descending Jacksonville Center
11:53 31.4117 -85.3681 199° South 438 504 18,700 -2,040 Descending Jacksonville Center
11:54 31.2917 -85.4161 199° South 426 490 16,700 -1,920 Descending Jacksonville Center
11:55 31.1842 -85.4617 200° South 427 491 14,800 -1,980 Descending Jacksonville Center
11:56 31.0875 -85.4978 198° South 429 494 13,000 -1,860 Descending Jacksonville Center
11:57 30.9822 -85.5411 199° South 418 481 11,400 -1,260 Descending Jacksonville Center
11:58 30.8975 -85.5992 210° Southwest 386 444 10,500 -1,440 Descending Jacksonville Center
11:59 30.8419 -85.6533 220° Southwest 324 373 8,600 -1,920 Descending Jacksonville Center
12:00 30.7864 -85.7122 222° Southwest 288 331 6,700 -1,920 Descending Jacksonville Center
12:01 30.7350 -85.7733 226° Southwest 271 312 4,800 -1,740 Descending Jacksonville Center
12:02 30.6794 -85.8297 221° Southwest 264 304 3,300 -900 Descending Jacksonville Center
12:03 30.6200 -85.8689 210° Southwest 264 304 3,000 -240 Descending Jacksonville Center
12:04 30.5469 -85.8739 183° South 253 291 2,900 -480 Descending Jacksonville Center
12:05 30.4764 -85.8475 162° South 253 291 2,100 -900 Descending Jacksonville Center
12:06 30.4250 -85.8242 159° South 233 268 1,200 -900 Descending Jacksonville Center
12:07 30.3856 -85.8086 161° South 187 215 400 4,860 Descending Jacksonville Center
12:08 30.3464 -85.7906 158° South 167 192 11,000 5,280 Climbing Jacksonville Center
12:09 30.2986 -85.7722 162° South 167 192 11,000  Level Jacksonville Center